Simultaneous Nadir Overpasses (SNOs) Predictions

Prediction of SNOs between AQUA and METOP-B Satellite Orbit:

Table of predicted SNOs for the next 14.0 days since TLE Epoch: 1/19/2018
Index Date (AQUA) Time (AQUA) Lat,Lon (AQUA) SZA (AQUA ) Date (METOP-B) Time (METOP-B) Lat,Lon (METOP-B) SZA (METOP-B ) Distance(km) Time Diff (sec)
1 01/21/2018 08:49:20 -73.74,-137.92 86.32 01/21/2018 08:48:07 -73.73,-138.10 86.31 5.91 73
2 01/21/2018 09:38:50 73.85, 29.48 93.79 01/21/2018 09:38:44 73.84, 29.52 93.79 1.00 6
3 01/21/2018 10:28:16 -73.89,-162.97 86.17 01/21/2018 10:29:25 -73.90,-163.02 86.17 2.09 69
4 01/24/2018 04:23:37 -73.77, -71.55 86.93 01/24/2018 04:22:27 -73.79, -71.55 86.90 2.10 70
5 01/24/2018 05:13:06 73.83, 95.96 93.13 01/24/2018 05:13:05 73.86, 95.95 93.16 3.33 1
6 01/24/2018 06:02:33 -73.92, -96.60 86.79 01/24/2018 06:03:46 -73.92, -96.58 86.80 0.48 73
7 01/26/2018 23:57:55 -73.80, -5.19 87.59 01/26/2018 23:56:49 -73.80, -5.12 87.58 2.20 66
8 01/27/2018 00:47:24 73.87, 162.31 92.48 01/27/2018 00:47:27 73.86, 162.38 92.47 2.08 3
9 01/27/2018 01:36:53 -74.05, -30.47 87.33 01/27/2018 01:38:05 -74.07, -29.79 87.35 20.93 72
10 01/29/2018 19:32:12 -73.79, 61.27 88.34 01/29/2018 19:31:11 -73.81, 61.31 88.31 1.80 61
11 01/29/2018 20:21:41 73.86,-131.24 91.73 01/29/2018 20:21:49 73.87,-131.20 91.74 1.92 8
12 01/29/2018 21:11:14 -74.25, 35.51 87.86 01/29/2018 21:12:23 -74.28, 37.13 87.91 48.85 69
13 02/01/2018 15:06:28 -73.79, 127.72 89.12 02/01/2018 15:05:32 -73.81, 127.73 89.09 2.42 56
14 02/01/2018 15:55:57 73.86, -64.81 90.95 02/01/2018 15:56:10 73.88, -64.78 90.97 1.98 13




NCC Satellite Simultaneous Nadir Overpasses (SNOs) Prediction Service
